EW6223 Weather Reports


time (UTC)temp
F
wind
direction
speed
knots
gust
knots
rain 1hr
in
rain 24hr
in
rain mn
in
humidity
%
barometer
mb
20260510163048 0 0.0 0.0 0.00 0.00 0.00 936.7
20260510161532 0 0.0 0.0 0.00 0.00 0.00 936.7
20260510160033 0 0.0 0.0 0.00 0.00 0.00 950.7
20260510154524 0 0.0 0.0 0.00 0.00 0.00 955.6
20260510153008 0 0.0 0.0 0.00 0.00 0.00 978.4
20260510151506 0 0.0 0.0 0.00 0.00 0.00 978.4
20260510150100 0 0.0 0.0 0.00 0.00 0.00 989.3
20260510144606 0 0.0 0.0 0.00 0.00 0.00 987.6
20260510141548 0 0.0 0.0 0.00 0.00 0.00 995.6
20260510140043 0 0.0 0.0 0.00 0.00 0.00 989.2
20260510134539 0 0.0 0.0 0.00 0.00 0.00 1002.9
20260510131533 0 0.0 0.0 0.00 0.00 0.00 998.8
20260510130029 0 0.0 0.0 0.00 0.00 0.00 998.8
20260510124524 0 0.0 0.0 0.00 0.00 0.00 998.3
20260510121526 0 0.0 0.0 0.00 0.00 0.00 992.5
20260510120023 0 0.0 0.0 0.00 0.00 0.00 987.9
20260510114522 0 0.0 0.0 0.00 0.00 0.00 987.5
20260510113012 0 0.0 0.0 0.00 0.00 0.00 984.9
20260510111509 78 330 0.0 0.0 0.00 0.00 0.00 28 993.2
20260510110008 78 330 0.0 0.0 0.00 0.00 0.00 28 983.8
20260510104506 78 330 0.0 0.9 0.00 0.00 0.00 28 968.3
20260510103004 79 329 0.0 1.7 0.00 0.00 0.00 27 967.6
20260510101502 80 331 0.0 0.0 0.00 0.00 0.00 27 987.0
20260510100001 80 331 0.0 0.0 0.00 0.00 0.00 27 988.5
20260510094501 80 331 0.0 0.0 0.00 0.00 0.00 26 982.1
20260510093100 80 331 0.0 0.0 0.00 0.00 0.00 26 958.6
20260510091558 80 331 0.0 0.0 0.00 0.00 0.00 27 951.0
20260510090058 79 331 0.0 0.0 0.00 0.00 0.00 26 965.2
20260510084610 79 331 0.0 2.6 0.00 0.00 0.00 26 965.2
20260510083056 80 321 0.0 0.0 0.00 0.00 0.00 26 979.1
20260510081536 80 322 0.0 0.9 0.00 0.00 0.00 27 953.3
20260510080039 80 321 0.0 0.0 0.00 0.00 0.00 27 953.3
20260510074524 80 322 0.0 0.0 0.00 0.00 0.00 27 919.0
20260510073034 80 322 0.0 0.0 0.00 0.00 0.00 29 919.0
20260510071519 80 322 0.0 1.7 0.00 0.00 0.00 28 898.7
20260510070018 80 321 0.9 2.6 0.00 0.00 0.00 28 898.7
20260510064515 80 318 0.9 1.7 0.00 0.00 0.00 29 898.7
20260510063017 79 319 0.9 2.6 0.00 0.00 0.00 29 898.7
20260510061515 79 319 0.9 2.6 0.00 0.00 0.00 30 898.7
20260510060023 80 324 0.9 2.6 0.00 0.00 0.00 30 909.7
20260510054510 80 309 0.9 2.6 0.00 0.00 0.00 30 873.8
20260510053006 81 304 0.9 2.6 0.00 0.00 0.00 30 873.8
20260510051506 81 304 0.0 0.9 0.00 0.00 0.00 30 844.2
20260510050005 81 304 0.0 1.7 0.00 0.00 0.00 31 844.2
20260510044535 81 303 0.0 0.0 0.00 0.00 0.00 31 863.3
20260510043035 81 303 0.0 1.7 0.00 0.00 0.00 31 806.5
20260510041532 81 301 0.0 1.7 0.00 0.00 0.00 30 806.5
20260510040030 81 301 0.0 1.7 0.00 0.00 0.00 31 806.5
20260510034527 82 275 0.0 1.7 0.00 0.00 0.00 30 843.1
20260510033031 83 254 0.9 3.5 0.00 0.00 0.00 30 796.2
20260510031603 84 251 0.9 2.6 0.00 0.00 0.00 29 796.2
20260510024553 81 273 2.6 5.2 0.00 0.00 0.00 36 852.3
20260510023052 82 299 2.6 6.1 0.00 0.00 0.00 36 852.3
20260510021641 82 279 2.6 4.3 0.00 0.00 0.00 35 852.3
20260510020057 83 241 2.6 6.1 0.00 0.00 0.00 35 852.3
20260510014556 85 275 3.5 6.1 0.00 0.00 0.00 31 852.3
20260510013059 87 264 1.7 6.1 0.00 0.00 0.00 31 852.3
20260510011548 88 256 3.5 5.2 0.00 0.00 0.00 29 852.3
20260510010055 90 321 2.6 6.1 0.00 0.00 0.00 27 868.7
20260510004546 90 282 3.5 7.8 0.00 0.00 0.00 26 868.7
20260510003045 90 306 3.5 7.8 0.00 0.00 0.00 27 888.7
20260510001545 90 315 3.5 7.8 0.00 0.00 0.00 27 888.7
20260510000043 91 300 4.3 7.8 0.00 0.00 0.00 27 888.7
20260509234512 91 297 4.3 8.7 0.00 0.00 0.00 27 913.4
20260509233011 91 317 3.5 8.7 0.00 0.00 0.00 29 913.4
20260509231509 91 300 4.3 9.6 0.00 0.00 0.00 28 913.4
20260509230021 92 248 4.3 8.7 0.00 0.00 0.00 26 970.5
20260509224507 94 273 3.5 7.8 0.00 0.00 0.00 25 970.5
20260509223008 93 191 2.6 7.8 0.00 0.00 0.00 24 970.5
20260509221507 93 264 3.5 8.7 0.00 0.00 0.00 24 970.5
20260509220006 93 247 2.6 7.8 0.00 0.00 0.00 25 981.3
20260509214506 94 262 2.6 9.6 0.00 0.00 0.00 24 984.5
20260509214504 94 285 2.6 9.6 0.00 0.00 0.00 24 984.5
20260509213005 95 252 4.3 7.8 0.00 0.00 0.00 23 994.8
20260509211503 95 260 3.5 7.8 0.00 0.00 0.00 22 994.8
20260509210039 95 237 2.6 6.1 0.00 0.00 0.00 24 994.8
20260509204532 94 254 2.6 7.8 0.00 0.00 0.00 23 986.5
20260509203032 94 238 3.5 7.0 0.00 0.00 0.00 24 994.2
20260509201531 95 311 2.6 7.8 0.00 0.00 0.00 24 998.5
20260509200029 95 315 2.6 7.0 0.00 0.00 0.00 26 999.0
20260509194542 95 273 2.6 7.0 0.00 0.00 0.00 27 1001.9
20260509193058 96 282 2.6 6.1 0.00 0.00 0.00 22 997.5
20260509191607 96 291 2.6 6.1 0.00 0.00 0.00 21 996.1
20260509190054 95 239 2.6 6.1 0.00 0.00 0.00 21 999.8
20260509184600 95 253 2.6 6.1 0.00 0.00 0.00 21 998.6
20260509183054 94 227 2.6 6.1 0.00 0.00 0.00 23 1001.1
20260509181552 94 290 2.6 7.8 0.00 0.00 0.00 21 1001.4
20260509180053 94 281 1.7 7.8 0.00 0.00 0.00 19 998.6
20260509174540 94 238 2.6 6.1 0.00 0.00 0.00 24 1002.0
20260509173051 93 223 1.7 4.3 0.00 0.00 0.00 22 998.9
20260509171538 92 260 1.7 4.3 0.00 0.00 0.00 25 1000.5
20260509170027 90 225 1.7 4.3 0.00 0.00 0.00 32 1002.8
20260509164523 89 214 1.7 4.3 0.00 0.00 0.00 37 1002.7